Orangeburg, SC

4:41 AM EDT on May 26, 2017 (GMT -0400)
Orangeburg Municipal

Weather History for KOGB - October, 2010

Change the Weather History Date:

Saturday, October 9, 2010

  Actual Average Record
Temperature  
Mean Temperature 69 °F 68 °F  
Max Temperature 85 °F 79 °F 91 °F (2007)
Min Temperature 53 °F 56 °F 37 °F (1978)
Cooling Degree Days 4 4  
Month to date cooling degree days 13 45  
Year to date cooling degree days 2441 2039  
Growing Degree Days 18 (Base 50)    
Moisture  
Dew Point 56 °F    
Average Humidity 80    
Maximum Humidity 100    
Minimum Humidity 34    
Precipitation  
Precipitation 0.00 in 0.13 in 1.35 in (1950)
Month to date precipitation 0.00 1.30  
Year to date precipitation 36.41 38.40  
Sea Level Pressure  
Sea Level Pressure 30.05 in    
Wind  
Wind Speed 1 mph (WNW)    
Max Wind Speed 7 mph    
Max Gust Speed 16 mph    
Visibility 7 miles    
Events Fog    
T = Trace of Precipitation, MM = Missing Value Source: NWS Daily Summary

Daily Weather History Graph

Daily Weather History Graph

Search for Another Location

Airport or City:

Trip Planner

Search our weather history database for the weather conditions in past years. The results will help you decide how hot, cold, wet, or windy it might be!

Date:

Astronomy

Oct. 09, 2010 Rise Set
Actual Time 7:23 AM EDT 6:57 PM EDT
Civil Twilight 6:58 AM EDT 7:22 PM EDT
Nautical Twilight 6:29 AM EDT 7:50 PM EDT
Astronomical Twilight 6:00 AM EDT 8:19 PM EDT
Moon 9:30 AM EDT (10/9) 8:04 PM EDT (10/9)
Length of Visible Light 12h 23m
Length of Day
11h 33m
Waxing Crescent, 5% of the Moon is Illuminated
Oct 9
Waxing Crescent
Oct 14
First Quarter
Oct 22
Full
Oct 30
Last Quarter
Nov 6
New

Hourly Weather History & Observations

Time (EDT) Temp. Heat Index Dew Point Humidity Pressure Visibility Wind Dir Wind Speed Gust Speed Precip Events Conditions
12:53 AM 55.0 °F - 54.0 °F 96% 30.07 in 8.0 mi Calm Calm - N/A   Clear
1:53 AM 54.0 °F - 53.1 °F 97% 30.07 in 8.0 mi Calm Calm - N/A   Clear
2:53 AM 55.0 °F - 52.0 °F 89% 30.06 in 10.0 mi Calm Calm - 0.01 in   Clear
3:53 AM 54.0 °F - 52.0 °F 93% 30.05 in 10.0 mi Calm Calm - N/A   Clear
4:38 AM 53.6 °F - 51.8 °F 94% 30.05 in 10.0 mi Calm Calm - N/A   Scattered Clouds
4:46 AM 53.6 °F - 51.8 °F 94% 30.06 in 10.0 mi Calm Calm - N/A   Mostly Cloudy
4:53 AM 54.0 °F - 52.0 °F 93% 30.05 in 10.0 mi Calm Calm - N/A   Mostly Cloudy
5:48 AM 55.4 °F - 53.6 °F 94% 30.06 in 1.8 mi Calm Calm - N/A   Overcast
5:53 AM 55.0 °F - 54.0 °F 96% 30.06 in 1.5 mi Calm Calm - N/A   Overcast
6:13 AM 55.4 °F - 55.4 °F 100% 30.07 in 0.2 mi Calm Calm - N/A Fog Fog
6:53 AM 57.0 °F - 55.9 °F 96% 30.07 in 0.2 mi Calm Calm - N/A Fog Fog
7:53 AM 55.9 °F - 55.0 °F 97% 30.08 in 0.2 mi Calm Calm - N/A Fog Fog
8:53 AM 57.9 °F - 57.0 °F 97% 30.09 in 0.2 mi Calm Calm - N/A Fog Fog
9:53 AM 61.0 °F - 60.1 °F 97% 30.10 in 0.2 mi WNW 3.5 mph - N/A Fog Fog
10:23 AM 62.6 °F - 62.6 °F 100% 30.11 in 1.2 mi Calm Calm - N/A   Overcast
10:27 AM 64.4 °F - 62.6 °F 94% 30.11 in 2.0 mi Calm Calm - N/A   Overcast
10:37 AM 64.4 °F - 62.6 °F 94% 30.11 in 5.0 mi Calm Calm - N/A   Mostly Cloudy
10:45 AM 64.4 °F - 62.6 °F 94% 30.10 in 7.0 mi Calm Calm - N/A   Scattered Clouds
10:53 AM 68.0 °F - 63.0 °F 84% 30.10 in 8.0 mi Variable 3.5 mph - N/A   Partly Cloudy
11:53 AM 77.0 °F - 60.1 °F 56% 30.09 in 10.0 mi NW 4.6 mph - N/A   Clear
12:53 PM 80.1 °F 80.1 °F 55.0 °F 42% 30.06 in 10.0 mi Calm Calm - N/A   Clear
1:53 PM 81.0 °F - 51.1 °F 35% 30.03 in 10.0 mi West 4.6 mph - N/A   Clear
2:53 PM 82.9 °F 81.8 °F 53.1 °F 36% 30.00 in 10.0 mi Variable 4.6 mph - N/A   Clear
3:53 PM 82.9 °F - 52.0 °F 34% 29.99 in 10.0 mi West 4.6 mph - N/A   Clear
4:53 PM 82.9 °F - 52.0 °F 34% 29.98 in 10.0 mi Calm Calm - N/A   Clear
5:53 PM 82.0 °F 81.2 °F 53.1 °F 37% 29.98 in 10.0 mi WSW 4.6 mph - N/A   Clear
6:53 PM 73.0 °F - 57.9 °F 59% 29.99 in 10.0 mi Calm Calm - N/A   Clear
7:53 PM 66.9 °F - 59.0 °F 76% 30.00 in 10.0 mi Calm Calm - N/A   Clear
8:53 PM 64.0 °F - 59.0 °F 84% 30.01 in 10.0 mi Calm Calm - N/A   Clear
9:53 PM 62.1 °F - 57.9 °F 86% 30.03 in 9.0 mi Calm Calm - N/A   Clear
10:53 PM 61.0 °F - 57.9 °F 90% 30.03 in 9.0 mi Calm Calm - N/A   Clear
11:53 PM 59.0 °F - 57.0 °F 93% 30.04 in 6.0 mi Calm Calm - N/A   Clear